Flag for Martinique Weather past 2 weeks in Fort-de-France, Martinique

Now
81 °F

Passing clouds.


Feels Like: 84 °F
Forecast: 80 / 85 °F
Wind: 20 mph from East

Location: Le Lamentin Airport

Current Time: Jul 5, 2015 at 12:51:24 AM

Latest Report: Jul 4, 2015 at 11:30 PM


Visibility: N/A

Pressure: 30.04 "Hg

Humidity: 70%

Dew point: 70 °F

Location of Fort-de-FranceLocation

Historic Weather in Fort-de-France — Graph

°F

Fort-de-France temperature yesterday

Maximum temperature yesterday: 86 °F (at 10:30 AM)
Minimum temperature yesterday: 79 °F (at 12:00 AM)
Average temperature yesterday: 82 °F

Past Weeks' High & Low Weather Summary

 TemperatureHumidityPressure
High90 °F (Jun 25, 1:30 PM)94% (Jun 20, 7:00 AM)30.12 "Hg (Jun 20, 7:00 AM)
Low75 °F (Jun 21, 9:30 PM)52% (Jun 25, 1:30 PM)29.95 "Hg (Jul 2, 4:30 PM)
Average82 °F73%30.04 "Hg
* Reported Jun 19 11:00 PM — Jul 4 11:00 PM, Fort-de-France, Weather by CustomWeather, © 2015

Note: Actual official high and low records may vary slightly from our data, if they occured in-between our weather recording intervals... More about our weather records

Advertising

Fort-de-France weather history for previous 24 hours

 ConditionsComfort  
Time TempWeatherWind HumidityBarometerVisibility
11:00 PM
Sat, Jul 4
81 °FPartly cloudy.18 mph70%30.04 "HgN/A
10:30 PM81 °FPartly cloudy.20 mph74%30.04 "HgN/A
10:00 PM81 °FMostly cloudy.17 mph74%30.01 "HgN/A
9:30 PM81 °FPassing clouds.18 mph74%30.01 "HgN/A
9:00 PM81 °FPartly cloudy.17 mph74%30.01 "HgN/A
8:30 PM81 °FPassing clouds.20 mph74%30.01 "HgN/A
8:00 PM81 °FMostly cloudy.17 mph74%30.01 "HgN/A
7:30 PM81 °FMostly cloudy.14 mph74%30.01 "HgN/A
7:00 PM81 °FMostly cloudy.21 mph70%29.98 "HgN/A
6:30 PM82 °FBroken clouds.21 mph66%29.98 "HgN/A
6:00 PM82 °FPartly sunny.17 mph70%29.98 "HgN/A
5:30 PM82 °FCloudy.18 mph70%29.98 "HgN/A
5:00 PM82 °FMostly cloudy.18 mph66%29.98 "HgN/A
4:30 PM84 °FPartly sunny.22 mph62%29.95 "HgN/A
4:00 PM84 °FPartly sunny.22 mph66%29.98 "HgN/A
3:30 PM86 °FPartly sunny.22 mph62%29.98 "HgN/A
3:00 PM86 °FPartly sunny.20 mph62%29.98 "HgN/A
2:30 PM86 °FMostly cloudy.22 mph62%29.98 "HgN/A
2:00 PM86 °FPartly sunny.20 mph66%29.98 "HgN/A
1:30 PM86 °FPartly sunny.22 mph62%30.01 "Hg6 mi
1:00 PM86 °FBroken clouds.23 mph62%30.01 "Hg6 mi
12:30 PM86 °FScattered clouds.23 mph62%30.01 "Hg6 mi
12:00 PM86 °FScattered clouds.28 mph59%30.01 "Hg5 mi
11:30 AM86 °FPartly sunny.24 mph62%30.01 "Hg5 mi
11:00 AM84 °FMostly cloudy.22 mph70%30.01 "Hg4 mi
10:30 AM86 °FBroken clouds.23 mph66%30.01 "Hg4 mi
10:00 AM84 °FBroken clouds.22 mph66%30.04 "Hg4 mi
9:30 AM84 °FPassing clouds.22 mph66%30.04 "Hg4 mi
9:00 AM84 °FClear.20 mph66%30.01 "Hg4 mi
8:30 AM82 °FBroken clouds.17 mph70%30.01 "Hg4 mi
8:00 AM79 °FLight rain. Partly sunny.18 mph84%30.01 "HgN/A
7:30 AM81 °FLight rain. Broken clouds.16 mph74%30.01 "HgN/A
7:00 AM81 °FLight rain. Passing clouds.15 mph70%30.01 "HgN/A
6:30 AM81 °FLight rain. Scattered clouds.16 mph74%30.01 "HgN/A
6:00 AM79 °FLight rain. Clear.16 mph79%30.01 "HgN/A
5:30 AM79 °FLight rain. Partly cloudy.15 mph79%29.98 "HgN/A
5:00 AM79 °FPassing clouds.14 mph79%29.98 "HgN/A
4:30 AM79 °FPassing clouds.14 mph74%29.98 "HgN/A
4:00 AM79 °FPartly cloudy.16 mph84%29.98 "HgN/A
3:30 AM79 °FPartly cloudy.18 mph84%29.98 "HgN/A
3:00 AM81 °FMostly cloudy.15 mph79%29.98 "HgN/A
2:30 AM79 °FPassing clouds.13 mph84%29.98 "HgN/A
2:00 AM79 °FPartly cloudy.10 mph79%29.98 "HgN/A
1:30 AM79 °FPartly cloudy.13 mph84%29.98 "HgN/A
1:00 AM81 °FMostly cloudy.17 mph79%30.01 "HgN/A
12:30 AM79 °FPassing clouds.13 mph89%30.01 "HgN/A
12:00 AM79 °FLight rain. Passing clouds.17 mph84%30.01 "HgN/A
Weather by CustomWeather, © 2015

See weather overviewHow to use our weather pages